[[{"header":{"parameterUnit":"m.s-1","parameterCategory":1,"la1":30.2991,"la2":30.254,"lo1":-89.0895,"lo2":-89.0444,"dy":0.0017,"dx":0.0017,"nx":28,"ny":28,"refTime":"2025-01-27T09:00:00:Z","depth":0,"parameterNumber":2,"parameterNumberName":"U-component_of_WINDS"},"data":[0,0,0,0,0,0,0,0,0,0,0,0,0,0,0,0,0,0,0,0,0,0,0,0,0,0,0,0,0,0,0,0,0,0,0,0,0,0,0,0,0,0,0,0,0,0,0,0,0,0,0,0,0,0,0,0,0,0,0.6836,0.6837,0,0.6893,0.6894,0.6894,0.6923,0.6923,0.6923,0.6923,0.6982,0.6984,0.6986,0,0,0,0,0,0,0,0,0,0,0,0,0,0.6754,0.6755,0.6836,0.6837,0.6837,0.6893,0.6894,0.6895,0.6923,0.6923,0.6923,0.6923,0.6982,0.6984,0.6986,0,0,0,0,0,0,0,0,0,0,0,0,0,0.6798,0.6756,0.6836,0.6858,0.6861,0.6893,0.6894,0.6895,0.6923,0.6923,0.6923,0.6923,0.6981,0.6984,0.6986,0.7,0,0,0.6993,0.6994,0,0,0,0,0,0,0,0,0.6796,0.6801,0.6854,0.6857,0.686,0.6901,0.6887,0.693,0.6923,0.6899,0.6923,0.6923,0.6955,0.696,0.6971,0.7003,0.7006,0.6993,0.6995,0.6996,0.6997,0,0,0,0,0,0,0,0.6792,0.6799,0.6859,0.6855,0.6858,0.6866,0.6873,0.6895,0.6927,0.6901,0.6904,0.691,0.6957,0.6968,0.6972,0.7007,0.6993,0.6995,0.6997,0.6998,0.7056,0.7056,0,0,0,0,0,0,0.6786,0.6796,0.6857,0.686,0.6827,0.6868,0.6875,0.6888,0.6927,0.6932,0.691,0.6911,0.6964,0.6969,0.6974,0.6995,0.6996,0.6998,0.6999,0.7056,0.7056,0.7056,0,0,0,0,0,0,0.6784,0.6791,0.6855,0.6829,0.6838,0.6869,0.6883,0.6889,0.69,0.6933,0.6939,0.6916,0.6964,0.6971,0.6994,0.6998,0.6999,0.7001,0.7056,0.7056,0.7056,0.7036,0,0,0,0,0,0,0.6781,0.679,0.6795,0.6829,0.6839,0.6872,0.6884,0.689,0.6904,0.6906,0.694,0.6945,0.6965,0.699,0.6996,0.7001,0.7003,0.7056,0.7056,0.7056,0.7036,0.7035,0.7034,0,0,0,0,0,0.6778,0.6787,0.6795,0.6802,0.6846,0.6873,0.6878,0.69,0.6904,0.691,0.6931,0.6944,0.6996,0.6993,0.7,0.7005,0.7056,0.7056,0.7056,0.7037,0.7035,0.7034,0,0,0,0,0,0,0.6753,0.6792,0.6801,0.6821,0.6843,0.6877,0.6885,0.6898,0.692,0.6921,0.6948,0.6955,0.6976,0.6993,0.6988,0.7022,0.7027,0.7029,0.701,0.7009,0.7008,0.7004,0.7005,0,0,0,0,0,0.6749,0.6767,0.68,0.6815,0.6825,0.6853,0.6866,0.6881,0.6905,0.6915,0.6938,0.6962,0.6984,0.6997,0.7019,0.7039,0.7047,0.7046,0.7045,0.7044,0.7045,0.7059,0.7059,0.7057,0.7057,0.7057,0,0,0.6742,0.6766,0.6776,0.681,0.6829,0.6848,0.6861,0.688,0.6895,0.6918,0.6941,0.6959,0.6987,0.7009,0.702,0.7024,0.7048,0.7044,0.7043,0.7045,0.7059,0.7059,0.706,0.7057,0.7057,0.7057,0,0,0.674,0.6759,0.6774,0.6793,0.6822,0.684,0.6844,0.6876,0.6889,0.6913,0.6931,0.695,0.6986,0.7006,0.7021,0.7028,0.7041,0.7034,0.7029,0.7042,0.7042,0.7042,0.7046,0.7047,0.7035,0.7035,0.7035,0,0.6728,0.6756,0.678,0.6798,0.6813,0.6835,0.6851,0.6869,0.6903,0.6914,0.6917,0.6965,0.6985,0.7013,0.7015,0.7026,0.7032,0.703,0.704,0.7041,0.7041,0.7045,0.7046,0.7034,0.7034,0.7034,0.7034,0,0.6741,0.676,0.6769,0.6802,0.6818,0.6835,0.6862,0.6876,0.689,0.6909,0.6934,0.6959,0.6987,0.6995,0.7009,0.7025,0.7027,0.7035,0.7041,0.704,0.7044,0.7046,0.7033,0.7033,0.7033,0.7034,0,0,0.6723,0.6769,0.6772,0.6788,0.6822,0.6838,0.6857,0.6884,0.6896,0.692,0.6937,0.6968,0.6976,0.6993,0.701,0.7021,0.7027,0.7028,0.7029,0.7028,0.7048,0.7042,0.7043,0.7035,0.7036,0.7036,0.7046,0,0.6726,0.6759,0.6782,0.6807,0.6826,0.6848,0.6865,0.6888,0.6907,0.6927,0.6947,0.6969,0.6978,0.6989,0.7001,0.7023,0.7031,0.7023,0.7053,0.7054,0.7045,0.7045,0.7039,0.7047,0.7048,0.7048,0.7048,0,0.6733,0.6756,0.6783,0.6817,0.6826,0.684,0.6868,0.6886,0.6914,0.6927,0.6946,0.6963,0.6985,0.699,0.7021,0.7015,0.7029,0.7042,0.7043,0.7047,0.7051,0.705,0.705,0.7051,0.7051,0.705,0.705,0,0.6718,0.6756,0.6778,0.6791,0.683,0.684,0.6857,0.6884,0.69,0.6925,0.6936,0.6962,0.6977,0.6998,0.7023,0.7023,0.7052,0.7058,0.7065,0.7064,0.707,0.7069,0.7072,0.7078,0.7078,0.7078,0.7077,0,0.6719,0.6735,0.6772,0.6785,0.6805,0.6831,0.6849,0.6868,0.6893,0.6911,0.6932,0.6949,0.698,0.7002,0.7021,0.7045,0.7051,0.7063,0.7068,0.7062,0.706,0.7071,0.7072,0.7078,0.7078,0.7078,0.7078,0,0.6706,0.6731,0.6756,0.6792,0.6801,0.6814,0.6845,0.686,0.688,0.6903,0.691,0.6942,0.6968,0.6994,0.703,0.7043,0.7067,0.7073,0.7057,0.706,0.7066,0.7065,0.7077,0.708,0.7082,0.7082,0.7082,0,0.6705,0.6718,0.6755,0.6769,0.6785,0.6807,0.6823,0.685,0.6866,0.69,0.6911,0.6939,0.6962,0.7003,0.703,0.7058,0.7066,0.7068,0.707,0.7064,0.7067,0.7066,0.7069,0.7067,0.7067,0.7067,0.7067,0,0.6701,0.6713,0.6735,0.6763,0.6782,0.6804,0.6828,0.6838,0.687,0.6887,0.6914,0.6933,0.697,0.6997,0.7029,0.7047,0.7063,0.7066,0.7069,0.7063,0.7053,0.706,0.7056,0.7066,0.7066,0.7066,0.7066,0.7066,0.6694,0.6708,0.6736,0.6761,0.6782,0.6804,0.682,0.6842,0.6865,0.6897,0.6911,0.6939,0.6969,0.7012,0.7031,0.7054,0.7058,0.7062,0.7063,0.7064,0.7063,0.7049,0.7059,0.7059,0.7059,0.7059,0.7059,0,0.6692,0.6712,0.6735,0.6767,0.6787,0.68,0.6827,0.6843,0.6867,0.6893,0.6916,0.6949,0.6976,0.7006,0.7036,0.7048,0.7056,0.7055,0.7055,0.706,0.7057,0.7052,0.7049,0.7049,0.7049,0.7049,0.7049,0.7049,0.6694,0.6717,0.6733,0.6768,0.6788,0.6815,0.683,0.6851,0.6872,0.6906,0.6929,0.6948,0.6977,0.7009,0.7035,0.7044,0.7054,0.7051,0.7062,0.7059,0.7059,0.706,0.7055,0.7053,0.7053,0.7063,0.7063,0.7063]},{"header":{"parameterUnit":"m.s-1","parameterCategory":1,"la1":30.2991,"la2":30.254,"lo1":-89.0895,"lo2":-89.0444,"dy":0.0017,"dx":0.0017,"nx":28,"ny":28,"refTime":"2025-01-27T09:00:00:Z","depth":0,"parameterNumber":3,"parameterNumberName":"V-component_of_WINDS"},"data":[0,0,0,0,0,0,0,0,0,0,0,0,0,0,0,0,0,0,0,0,0,0,0,0,0,0,0,0,0,0,0,0,0,0,0,0,0,0,0,0,0,0,0,0,0,0,0,0,0,0,0,0,0,0,0,0,0,0,-3.7626,-3.7626,0,-3.766,-3.7661,-3.7661,-3.7679,-3.7679,-3.7679,-3.7679,-3.7711,-3.7711,-3.7712,0,0,0,0,0,0,0,0,0,0,0,0,0,-3.7572,-3.7573,-3.7626,-3.7626,-3.7627,-3.766,-3.7661,-3.7661,-3.7679,-3.7679,-3.7679,-3.7679,-3.771,-3.7711,-3.7712,0,0,0,0,0,0,0,0,0,0,0,0,0,-3.76,-3.7573,-3.7626,-3.764,-3.7641,-3.766,-3.7661,-3.7661,-3.7679,-3.7679,-3.7679,-3.768,-3.771,-3.7711,-3.7712,-3.7718,0,0,-3.7716,-3.7716,0,0,0,0,0,0,0,0,-3.7598,-3.7602,-3.7637,-3.7639,-3.7641,-3.7666,-3.7653,-3.768,-3.7679,-3.7665,-3.7679,-3.768,-3.7695,-3.7698,-3.7704,-3.772,-3.7721,-3.7716,-3.7717,-3.7717,-3.7718,0,0,0,0,0,0,0,-3.7596,-3.76,-3.7639,-3.7638,-3.764,-3.7643,-3.7647,-3.7658,-3.7679,-3.7666,-3.7668,-3.7672,-3.7696,-3.7703,-3.7705,-3.7721,-3.7716,-3.7717,-3.7718,-3.7718,-3.7744,-3.7744,0,0,0,0,0,0,-3.7593,-3.7599,-3.7638,-3.764,-3.7619,-3.7644,-3.7649,-3.7657,-3.7679,-3.7682,-3.7671,-3.7672,-3.7701,-3.7703,-3.7706,-3.7714,-3.7717,-3.7718,-3.7719,-3.7744,-3.7744,-3.7744,0,0,0,0,0,0,-3.7591,-3.7596,-3.7637,-3.762,-3.7625,-3.7645,-3.7655,-3.7658,-3.7665,-3.7683,-3.7687,-3.7674,-3.7701,-3.7704,-3.7715,-3.7716,-3.7719,-3.772,-3.7744,-3.7744,-3.7744,-3.7731,0,0,0,0,0,0,-3.759,-3.7595,-3.7599,-3.762,-3.7626,-3.7647,-3.7655,-3.7659,-3.7667,-3.7669,-3.7687,-3.769,-3.7701,-3.7713,-3.7716,-3.7717,-3.7721,-3.7744,-3.7744,-3.7744,-3.7731,-3.773,-3.773,0,0,0,0,0,-3.7588,-3.7593,-3.7599,-3.7603,-3.7631,-3.7647,-3.765,-3.7664,-3.7667,-3.767,-3.7682,-3.7689,-3.7715,-3.7714,-3.7718,-3.7719,-3.7744,-3.7744,-3.7744,-3.7732,-3.7731,-3.773,0,0,0,0,0,0,-3.7569,-3.7596,-3.7603,-3.7615,-3.7628,-3.765,-3.7654,-3.7662,-3.7674,-3.7675,-3.769,-3.7694,-3.7704,-3.7713,-3.7711,-3.7726,-3.773,-3.7731,-3.772,-3.7719,-3.7718,-3.7716,-3.7722,0,0,0,0,0,-3.7567,-3.7579,-3.7601,-3.7609,-3.7616,-3.7634,-3.7641,-3.7651,-3.7665,-3.767,-3.7683,-3.7695,-3.7707,-3.7713,-3.7724,-3.7733,-3.7737,-3.7735,-3.7735,-3.7734,-3.7734,-3.7739,-3.7739,-3.7743,-3.7743,-3.7743,0,0,-3.7561,-3.7577,-3.7583,-3.7606,-3.7617,-3.7628,-3.7638,-3.7649,-3.7657,-3.7671,-3.7683,-3.7693,-3.7708,-3.7718,-3.7723,-3.7725,-3.7734,-3.7734,-3.7733,-3.7734,-3.7739,-3.7739,-3.7738,-3.7743,-3.7743,-3.7743,0,0,-3.7557,-3.757,-3.7579,-3.7591,-3.761,-3.7622,-3.7624,-3.7644,-3.7651,-3.7664,-3.7675,-3.7684,-3.7703,-3.7713,-3.7721,-3.7721,-3.7728,-3.7724,-3.7719,-3.7725,-3.7724,-3.7724,-3.7724,-3.7724,-3.7724,-3.7724,-3.7724,0,-3.7547,-3.7565,-3.7582,-3.7593,-3.7602,-3.7618,-3.7626,-3.7636,-3.7657,-3.7662,-3.7665,-3.769,-3.7701,-3.7713,-3.7714,-3.7719,-3.7722,-3.7722,-3.7723,-3.7723,-3.7723,-3.7723,-3.7723,-3.7724,-3.7724,-3.7724,-3.7724,0,-3.7552,-3.7565,-3.757,-3.7591,-3.7601,-3.761,-3.7627,-3.7635,-3.7644,-3.7656,-3.7668,-3.7682,-3.7696,-3.77,-3.7708,-3.7714,-3.7715,-3.772,-3.7725,-3.7722,-3.7722,-3.7722,-3.7723,-3.7723,-3.7723,-3.7724,0,0,-3.7536,-3.7568,-3.7569,-3.7579,-3.7601,-3.7611,-3.7621,-3.7636,-3.7643,-3.7656,-3.7665,-3.7681,-3.7686,-3.7695,-3.7704,-3.7709,-3.7708,-3.7713,-3.7714,-3.7712,-3.7715,-3.7711,-3.7711,-3.7714,-3.7714,-3.7714,-3.7714,0,-3.7534,-3.7555,-3.7571,-3.7585,-3.7596,-3.7612,-3.762,-3.7634,-3.7645,-3.7656,-3.7667,-3.7679,-3.7685,-3.769,-3.7695,-3.7707,-3.7709,-3.7707,-3.772,-3.7721,-3.7716,-3.7711,-3.7707,-3.7707,-3.7715,-3.7715,-3.7715,0,-3.7535,-3.755,-3.7566,-3.7588,-3.7593,-3.7601,-3.7617,-3.7627,-3.7643,-3.7651,-3.7661,-3.7672,-3.7682,-3.7686,-3.77,-3.7699,-3.7705,-3.7712,-3.7712,-3.7713,-3.7717,-3.7712,-3.7707,-3.7707,-3.7715,-3.7715,-3.7715,0,-3.7522,-3.7546,-3.7559,-3.7567,-3.7592,-3.7597,-3.7608,-3.7624,-3.7633,-3.7646,-3.7652,-3.7666,-3.7673,-3.7684,-3.7697,-3.7699,-3.771,-3.7715,-3.7716,-3.7715,-3.7717,-3.7717,-3.7712,-3.7721,-3.7721,-3.7721,-3.7721,0,-3.7518,-3.7527,-3.7553,-3.7561,-3.7571,-3.7589,-3.7598,-3.761,-3.7624,-3.7634,-3.7647,-3.7656,-3.7673,-3.7683,-3.7694,-3.7704,-3.7707,-3.7713,-3.7716,-3.7712,-3.7711,-3.7716,-3.7716,-3.7721,-3.7721,-3.7721,-3.7721,0,-3.7504,-3.7522,-3.7537,-3.7561,-3.7567,-3.7574,-3.7593,-3.7601,-3.7613,-3.7625,-3.7629,-3.7648,-3.7661,-3.7675,-3.7692,-3.77,-3.7709,-3.7713,-3.7704,-3.7705,-3.7705,-3.7705,-3.7704,-3.7704,-3.7713,-3.7713,-3.7713,0,-3.75,-3.7508,-3.7533,-3.7542,-3.7553,-3.7565,-3.7575,-3.7593,-3.7602,-3.7621,-3.7626,-3.7641,-3.7653,-3.7672,-3.7687,-3.77,-3.7704,-3.7703,-3.7706,-3.7702,-3.7704,-3.7703,-3.7704,-3.7702,-3.7701,-3.7701,-3.7701,0,-3.7492,-3.7501,-3.7515,-3.7533,-3.7544,-3.7558,-3.7573,-3.7578,-3.7599,-3.7608,-3.7623,-3.7632,-3.7651,-3.7665,-3.768,-3.769,-3.7698,-3.77,-3.7701,-3.7697,-3.7692,-3.7694,-3.7701,-3.77,-3.77,-3.77,-3.77,-3.77,-3.7483,-3.7491,-3.751,-3.7525,-3.7539,-3.7552,-3.7561,-3.7576,-3.7588,-3.7606,-3.7615,-3.763,-3.7645,-3.7667,-3.7677,-3.7687,-3.769,-3.7691,-3.7692,-3.7692,-3.7691,-3.769,-3.769,-3.769,-3.769,-3.769,-3.769,0,-3.7475,-3.7489,-3.7503,-3.7524,-3.7536,-3.7546,-3.7562,-3.7571,-3.7584,-3.7599,-3.7612,-3.7628,-3.7642,-3.7658,-3.7673,-3.7678,-3.7682,-3.7681,-3.7681,-3.7683,-3.7687,-3.7685,-3.7677,-3.7677,-3.7677,-3.7677,-3.7677,-3.7677,-3.7472,-3.7486,-3.7497,-3.7518,-3.7531,-3.7547,-3.7555,-3.7568,-3.758,-3.7599,-3.7611,-3.7622,-3.7637,-3.7653,-3.7666,-3.767,-3.7675,-3.7672,-3.7678,-3.7681,-3.7682,-3.7683,-3.7681,-3.7673,-3.7673,-3.7672,-3.7672,-3.7672]}]]